Flag for U.S.A. Weather past 2 weeks in Bakersfield, California, U.S.A.

Now
95 °F

Sunny.


Feels Like: 93 °F
Forecast: 79 / 107 °F
Wind: 7 mph from North

Location: Meadows Field

Current Time: Jun 29, 2015 at 5:01:43 PM

Latest Report: Jun 29, 2015 at 3:54 PM


Visibility: 10 mi

Pressure: 29.83 "Hg

Humidity: 26%

Dew point: 55 °F

Location of BakersfieldLocation

Historic Weather in Bakersfield — Graph

°F

Bakersfield temperature yesterday

Maximum temperature yesterday: 97 °F (at 3:54 PM)
Minimum temperature yesterday: 78 °F (at 5:54 AM)
Average temperature yesterday: 87 °F

Past Weeks' High & Low Weather Summary

 TemperatureHumidityPressure
High105 °F (Jun 26, 5:54 PM)60% (Jun 29, 5:54 AM)29.99 "Hg (Jun 29, 5:54 AM)
Low66 °F (Jun 22, 5:54 AM)5% (Jun 21, 4:54 PM)29.63 "Hg (Jun 14, 5:54 PM)
Average86 °F23%29.85 "Hg
* Reported Jun 14 3:54 PM — Jun 29 3:54 PM, Bakersfield, Weather by CustomWeather, © 2015

Note: Actual official high and low records may vary slightly from our data, if they occured in-between our weather recording intervals... More about our weather records

Advertising

Bakersfield weather history for previous 24 hours

 ConditionsComfort  
Time TempWeatherWind HumidityBarometerVisibility
3:54 PM
Mon, Jun 29
95 °FSunny.7 mph26%29.83 "Hg10 mi
2:54 PM94 °FSunny.N/A28%29.85 "Hg10 mi
1:54 PM92 °FSunny.No wind31%29.86 "Hg10 mi
12:54 PM88 °FSunny.5 mph33%29.89 "Hg10 mi
11:54 AM87 °FSunny.N/A36%29.91 "Hg10 mi
10:54 AM85 °FSunny.7 mph39%29.92 "Hg10 mi
9:54 AM80 °FPassing clouds.No wind45%29.93 "Hg10 mi
8:54 AM78 °FSunny.5 mph48%29.94 "Hg10 mi
7:54 AM78 °FSunny.3 mph52%29.94 "Hg10 mi
6:54 AM75 °FSunny.7 mph58%29.93 "Hg10 mi
5:54 AM74 °FClear.7 mph60%29.91 "Hg10 mi
4:54 AM76 °FClear.8 mph56%29.89 "Hg10 mi
3:54 AM76 °FClear.7 mph56%29.88 "Hg10 mi
2:54 AM79 °FClear.9 mph50%29.87 "Hg10 mi
1:54 AM80 °FClear.6 mph54%29.87 "Hg10 mi
12:54 AM86 °FClear.5 mph37%29.86 "Hg10 mi
11:54 PM
Sun, Jun 28
88 °FClear.9 mph34%29.86 "Hg10 mi
10:54 PM88 °FClear.7 mph34%29.86 "Hg10 mi
9:54 PM89 °FClear.6 mph32%29.85 "Hg10 mi
8:54 PM88 °FSunny.7 mph34%29.84 "Hg10 mi
7:54 PM92 °FSunny.7 mph28%29.83 "Hg10 mi
6:54 PM94 °FSunny.8 mph29%29.81 "Hg10 mi
Weather by CustomWeather, © 2015

See weather overviewHow to use our weather pages